sat.trackr.live / text

‹ back to catalog

MUOS-1

NORAD 38093 · 2012-009A

PAYLOAD ACTIVE UNKNOWN

§ Identity

Operator
Country
US
Launch date
2012-02-24
Launch site
AFETR
Launch vehicle
Mass (kg)
RCS (m²)
39.81

Purposes: comms

External: N2YO · Heavens-Above · Gunter

§ Orbital elements

Epoch: 2026-09-19T23:20:14.692128Z

Period
1,436.11 min
Inclination
5.6677°
Eccentricity
0.0052243
Mean motion
1.00271158 rev/d
Perigee alt
35,566.5 km
Apogee alt
36,007.1 km
Semi-major
42,164.9 km
B*
0.0000e+0
RAAN
46.9752°
Arg perigee
3.7642°
Mean anomaly
198.2327°
Rev number
5,339

§ Raw data

MUOS-11 38093U 12009A   26262.97239227 -.00000129  00000+0  00000+0 0  99952 38093   5.6677  46.9752 0052243   3.7642 198.2327  1.00271158 53394

JSON: /api/v1/satellites/38093 · /tle

For live sub-satellite position, see the globe view (requires WebGL).

§ Visibility from observer

Set your observer location to see the next 7 days of passes ≥ 10°. The values pass through the URL so the page stays shareable.

No JS? Fill the form by hand. The geolocation button needs JavaScript.